Regional Weather Roundup
Issued by NWS Green Bay, WI

Home | Current Version | Previous Version | Graphics & Text | Print | Product List | Glossary Off
Versions: 1 2 3 4 5 6 7 8 9 10 11 12 13 14 15 16 17 18 19 20 21 22 23 24 25 26 27 28 29 30 31 32 33 34 35 36 37 38 39 40 41 42 43 44 45 46 47 48 49 50

000
ASUS43 KGRB 020910
RWRGRB

NORTH-CENTRAL AND NORTHEAST WISCONSIN REGIONAL WEATHER ROUNDUP
NATIONAL WEATHER SERVICE GREEN BAY WI
400 AM CDT THU APR 02 2015

WIZ005-009-010>012-018-019-021000-
NORTH CENTRAL WISCONSIN

CITY           SKY/WX    TMP DP  RH WIND       PRES   REMARKS
IRONWOOD       CLOUDY    52  43  71 W14       29.52R
MANITOWISH WTR DRIZZLE   52  52  99 W13       29.54F
ARBOR VITAE    CLOUDY    52  49  92 W8        29.54F
EAGLE RIVER    CLOUDY    50  46  85 W9        29.52F
LAND O LAKES   CLOUDY    52  47  83 W7        29.53S
RHINELANDER    CLOUDY    52  48  86 SW13      29.56S
PHILLIPS       CLOUDY    52  51  96 W9        29.55F
ANTIGO         LGT RAIN  52  43  71 SW10      29.55F
TOMAHAWK       CLOUDY    52  49  91 CALM      29.56R
MERRILL        CLOUDY    53  49  86 SW8       29.55F
$$

WIZ013-073-021000-
NORTHEAST WISCONSIN

CITY           SKY/WX    TMP DP  RH WIND       PRES   REMARKS
IRON MOUNTAIN  CLOUDY    50  37  61 S14       29.49F
MARINETTE      MOCLDY    57  39  51 SW14G23   29.56F
OCONTO         CLOUDY    57  41  54 SW10G21   29.58F
$$

WIZ017-030-035>037-045-021000-
CENTRAL WISCONSIN

CITY           SKY/WX    TMP DP  RH WIND       PRES   REMARKS
MEDFORD        LGT RAIN  54  51  90 SW14G21   29.58R
WAUSAU         CLOUDY    56  46  69 SW9       29.55F
MOSINEE        CLOUDY    52  45  76 S6        29.57F
MARSHFIELD     CLOUDY    54  47  77 W7        29.59F
WISC RAPIDS    CLOUDY    58  36  43 S9        29.59F
STEVENS POINT  CLOUDY    56  37  49 S10       29.58F
WAUPACA        CLOUDY    58  38  47 S10       29.59F
SHAWANO        CLOUDY    57  39  51 S3        29.57F
CLINTONVILLE   CLOUDY    55  37  50 S8        29.58F
$$

WIZ038-039-048-051-021000-
FOX VALLEY

CITY           SKY/WX    TMP DP  RH WIND       PRES   REMARKS
NWS GREEN BAY  CLOUDY    55  41  59 SW17G24   29.60F
APPLETON       CLOUDY    54  37  54 S23G29    29.61F
OSHKOSH        CLOUDY    55  40  56 S18G26    29.63F
FOND DU LAC    CLOUDY    55  39  54 S15G26    29.65F
$$

WIZ022-050-052-021000-
EAST CENTRAL WISCONSIN

CITY           SKY/WX    TMP DP  RH WIND       PRES   REMARKS
STURGEON BAY   CLOUDY    46  37  71 S12       29.62F
MANITOWOC      MOCLDY    59  40  49 SW15      29.66F
SHEBOYGAN      MOCLDY    54  38  54 S9        29.69F
$$

LMZ563-521-522-541>543-021000-
LAKESHORE

STATION/POSITION TIME  TEMP    WIND        PRES    VSBY  WAVE
                       AIR SEA DIR/SP/G                  HT/PER
                 (UTC) (F)     (DEG/KT/KT) (MB)    (MI)  (FT/S)
SHEBOYGAN LKSHOR 0900   46     190/ 11/ 12 1006.2F
KEWAUNEE LKSHORE 0900   45     190/ 13/ 14 1003.1F
NORTHPORT PIER   0900   42     150/  8/ 12 1002.4F
SISTER BAY LKSHO 0800   48     180/ 15/ 19   N/A
CHAMBERS ISLAND  0900   51     170/ 10/ 20 1001.7F
MENOMINEE LKSHOR 0900   54     190/ 15     1002.1F
$$


USA.gov is the U.S. government's official web portal to all federal, state and local government web resources and services.